Location: Observatory
(52.1446°N, 0.4624°W)
Time: 02:06:07
(UTC+01:00)

ISS - Pass Details

Date: 26 May 2018
Orbit: 402 x 406 km, 51.6° (Epoch: 21 June)

Event Time Altitude Azimuth Distance (km) Brightness Sun altitude
Rises 23:14:59 0° 271° (W) 2,322 0.4 -13.2°
Reaches altitude 10° 23:17:04 10° 271° (W) 1,461 -0.7 -13.3°
Maximum altitude 23:20:20 83° 186° (S) 412 -3.9 -13.5°
Drops below altitude 10° 23:23:37 10° 96° (E) 1,459 -1.3 -13.7°
Enters shadow 23:23:43 - 96° (E) 1,500 -1.2 -13.7°
